This demonstration page uses our WeatherBlox Daily Observations layout. Learn more.

Left ArrowRight Arrow

Hourly Observations for June 8, 2021

Temp ( °F °C ) Dew Point ( °F °C ) Humidity (%) Winds ( mph kmh ) Pressure ( in mb ) Visibility ( mi km ) Precip ( " mm )
12:53 am 00:53 Cloudy 64 17.8 36 2.2 35 35 SSE 3 6 29.78 1008 10 16 0.00 0.00
1:53 am 01:53 Cloudy 63 17.2 30 -1.1 29 29 SSW 12 19 29.80 1009 10 16 0.00 0.00
2:53 am 02:53 Cloudy 61 16.1 31 -0.6 32 32 S 9 15 29.81 1009 10 16 0.00 0.00
3:53 am 03:53 Cloudy 61 16.1 32 0 34 34 S 8 13 29.82 1010 10 16 0.00 0.00
4:53 am 04:53 Mostly Cloudy 59 15 41 5 51 51 S 13 20 29.84 1011 10 16 0.00 0.00
5:53 am 05:53 Mostly Cloudy 57 13.9 42 5.6 58 58 SSW 12 19 29.86 1011 10 16 0.00 0.00
6:53 am 06:53 Sunny 57 13.9 42 5.6 58 58 SSW 12 19 29.90 1013 10 16 0.00 0.00
7:53 am 07:53 Mostly Cloudy 58 14.4 42 5.6 56 56 S 15 24 29.91 1013 10 16 0.00 0.00
8:53 am 08:53 Cloudy 59 15 42 5.6 54 54 S 8 13 29.94 1014 10 16 0.00 0.00
9:53 am 09:53 Cloudy 61 16.1 42 5.6 50 50 SSE 12 19 29.95 1014 10 16 0.00 0.00
10:53 am 10:53 Sunny 64 17.8 41 5 43 43 S 12 19 29.95 1014 10 16 0.00 0.00
11:53 am 11:53 Sunny 66 18.9 42 5.6 42 42 SSW 7 11 29.95 1014 10 16 0.00 0.00
12:53 pm 12:53 Sunny 71 21.7 40 4.4 32 32 SE 12 19 29.95 1014 10 16 0.00 0.00
1:53 pm 13:53 Sunny 71 21.7 37 2.8 29 29 VRB 6 9 29.94 1014 10 16 0.00 0.00
2:53 pm 14:53 Sunny 74 23.3 34 1.1 23 23 SSW 14 22 29.93 1014 10 16 0.00 0.00
3:53 pm 15:53 Sunny 75 23.9 37 2.8 25 25 S 13 20 29.92 1013 10 16 0.00 0.00
4:53 pm 16:53 Sunny 76 24.4 38 3.3 25 25 S 16 26 29.92 1013 10 16 0.00 0.00
5:53 pm 17:53 Mostly Sunny 73 22.8 38 3.3 28 28 SSE 10 17 29.91 1013 10 16 0.00 0.00
6:53 pm 18:53 Sunny 72 22.2 37 2.8 28 28 SSW 8 13 29.91 1013 10 16 0.00 0.00
7:53 pm 19:53 Mostly Cloudy 66 18.9 42 5.6 42 42 NW 13 20 29.95 1014 10 16 0.00 0.00
8:53 pm 20:53 Mostly Cloudy 65 18.3 42 5.6 43 43 NNW 8 13 29.95 1014 10 16 0.00 0.00
9:53 pm 21:53 Mostly Cloudy 63 17.2 42 5.6 47 47 NNW 3 6 29.97 1015 10 16 0.00 0.00
10:53 pm 22:53 Mostly Clear 61 16.1 43 6.1 52 52 SW 3 6 29.99 1016 10 16 0.00 0.00
11:53 pm 23:53 Clear 61 16.1 40 4.4 46 46 WNW 5 7 29.99 1016 10 16 0.00 0.00

Powered by AerisWeather